Sioux Falls, SD

12:45 AM CDT on August 22, 2019 (GMT -0500)
Foss

Weather History for KFSD - July, 2019

Change the Weather History Date:

Monday, July 22, 2019

  Actual Average Record
Temperature  
Mean Temperature 69 °F 73 °F  
Max Temperature 79 °F 84 °F 107 °F (1936)
Min Temperature 58 °F 62 °F 47 °F (1947)
Degree Days  
Heating Degree Days 0 0  
Month to date heating degree days 0 0  
Since 1 June heating degree days 20 51  
Since 1 July heating degree days 0 0  
Cooling Degree Days 4 8  
Month to date cooling degree days 261 184  
Year to date cooling degree days 465 355  
Since 1 June cooling degree days 450 319  
Growing Degree Days 18 (Base 50)    
Moisture  
Dew Point 55 °F    
Average Humidity 66    
Maximum Humidity 93    
Minimum Humidity 39    
Precipitation  
Precipitation 0.00 in 0.10 in 1.24 in (1922)
Month to date precipitation 6.30 2.21  
Year to date precipitation 26.73 15.46  
Snow  
Snow 0.00 in 0.00 in 0.00 in ()
Month to date snowfall T 0.0  
Since 1 June snowfall T 0.0  
Since 1 July snowfall T 0.0  
Snow Depth 0.00 in    
Sea Level Pressure  
Sea Level Pressure 30.26 in    
Wind  
Wind Speed 6 mph (North)    
Max Wind Speed 17 mph    
Max Gust Speed 23 mph    
Visibility 10 miles    
Events      
T = Trace of Precipitation, MM = Missing Value Source: NWS Daily Summary

Daily Weather History Graph

Daily Weather History Graph

Search for Another Location

Airport or City:

Astronomy

Jul. 22, 2019 Rise Set
Actual Time 6:05 AM CDT 9:00 PM CDT
Civil Twilight 5:31 AM CDT 9:34 PM CDT
Nautical Twilight 4:48 AM CDT 10:17 PM CDT
Astronomical Twilight 3:58 AM CDT 11:07 PM CDT
Moon No Moon Rise 11:32 AM CDT
Length of Visible Light 16h 02m
Length of Day
14h 54m
Waning Gibbous, 72% of the Moon is Illuminated
Jul 22
Waning Gibbous
Jul 24
Last Quarter
Jul 31
New
Aug 7
First Quarter
Aug 15
Full

Hourly Weather History & Observations

Time (CDT) Temp. Dew Point Humidity Pressure Visibility Wind Dir Wind Speed Gust Speed Precip Events Conditions
12:56 AM 64.0 °F 57.9 °F 80% 30.21 in 10.0 mi North 5.8 mph - N/A   Clear
1:56 AM 62.1 °F 57.0 °F 84% 30.21 in 10.0 mi North 5.8 mph - N/A   Clear
2:56 AM 61.0 °F 57.0 °F 87% 30.22 in 10.0 mi NNW 5.8 mph - N/A   Clear
3:56 AM 59.0 °F 55.9 °F 90% 30.22 in 10.0 mi NNW 3.5 mph - N/A   Clear
4:56 AM 59.0 °F 55.9 °F 90% 30.24 in 10.0 mi North 4.6 mph - N/A   Clear
5:56 AM 57.9 °F 55.0 °F 90% 30.26 in 10.0 mi NW 3.5 mph - N/A   Clear
6:56 AM 61.0 °F 55.9 °F 83% 30.27 in 10.0 mi NNW 6.9 mph - N/A   Clear
7:56 AM 64.9 °F 57.9 °F 78% 30.28 in 10.0 mi NNW 8.1 mph - N/A   Clear
8:56 AM 68.0 °F 57.9 °F 70% 30.29 in 10.0 mi North 8.1 mph - N/A   Clear
9:56 AM 72.0 °F 57.0 °F 59% 30.28 in 10.0 mi NNE 9.2 mph - N/A   Partly Cloudy
10:56 AM 73.0 °F 55.0 °F 53% 30.30 in 10.0 mi North 9.2 mph - N/A   Scattered Clouds
11:56 AM 73.0 °F 55.0 °F 53% 30.30 in 10.0 mi North 9.2 mph 21.9 mph N/A   Scattered Clouds
12:56 PM 75.9 °F 55.0 °F 48% 30.30 in 10.0 mi NNE 11.5 mph - N/A   Scattered Clouds
1:56 PM 77.0 °F 54.0 °F 45% 30.29 in 10.0 mi North 11.5 mph 18.4 mph N/A   Partly Cloudy
2:56 PM 77.0 °F 53.1 °F 43% 30.28 in 10.0 mi North 12.7 mph - N/A   Partly Cloudy
3:56 PM 78.1 °F 52.0 °F 40% 30.27 in 10.0 mi NNE 12.7 mph - N/A   Partly Cloudy
4:56 PM 78.1 °F 51.1 °F 39% 30.26 in 10.0 mi North 8.1 mph - N/A   Partly Cloudy
5:56 PM 78.1 °F 52.0 °F 40% 30.25 in 10.0 mi NNW 6.9 mph - N/A   Partly Cloudy
6:56 PM 77.0 °F 52.0 °F 42% 30.25 in 10.0 mi NNE 8.1 mph - N/A   Partly Cloudy
7:56 PM 73.9 °F 55.0 °F 52% 30.24 in 10.0 mi NE 4.6 mph - N/A   Clear
8:56 PM 69.1 °F 54.0 °F 58% 30.24 in 10.0 mi ENE 3.5 mph - N/A   Partly Cloudy
9:56 PM 64.9 °F 55.0 °F 70% 30.25 in 10.0 mi Calm Calm - N/A   Partly Cloudy
10:56 PM 64.9 °F 55.9 °F 73% 30.26 in 10.0 mi Calm Calm - N/A   Partly Cloudy
11:56 PM 61.0 °F 57.0 °F 87% 30.28 in 10.0 mi Calm Calm - N/A   Partly Cloudy